Weather History for Hagerstown, MD

Change the Weather History Date:

Wednesday, September 11, 2013

  Actual Average Record
Temperature  
Mean Temperature 82 °F -  
Max Temperature 92 °F 76 °F 92 °F (2013)
Min Temperature 72 °F 57 °F 47 °F (2012)
Cooling Degree Days 17    
Month to date cooling degree days 87  
Year to date cooling degree days 1072  
Growing Degree Days 32 (Base 50)    
Moisture  
Dew Point 71 °F    
Average Humidity 68    
Maximum Humidity 87    
Minimum Humidity 49    
Precipitation  
Precipitation 0.00 in - - ()
Month to date precipitation 1.76  
Year to date precipitation 20.91  
Sea Level Pressure  
Sea Level Pressure 30.10 in    
Wind  
Wind Speed 5 mph (SSW)    
Max Wind Speed 14 mph    
Max Gust Speed 17 mph    
Visibility 8 miles    
Events Rain , Thunderstorm    
Averages and records for this station are not official NWS values.
T = Trace of Precipitation, MM = Missing Value Source: NWS Daily Summary

Daily Weather History Graph

Daily Weather History Graph

Search for Another Location

Airport:

Trip Planner

Search our weather history database for the weather conditions in past years. The results will help you decide how hot, cold, wet, or windy it might be!

Date:

Astronomy

Sep. 11, 2013 Rise Set
Actual Time 6:48 AM EDT 7:25 PM EDT
Civil Twilight 6:21 AM EDT 7:52 PM EDT
Nautical Twilight 5:49 AM EDT 8:24 PM EDT
Astronomical Twilight 5:16 AM EDT 8:57 PM EDT
Moon 1:13 PM EDT (9/11) 11:20 PM EDT (9/11)
Length of Visible Light 13h 31m
Length of Day
12h 37m
Waxing Crescent, 38% of the Moon is Illuminated
Sep 11
Waxing Crescent
Sep 12
First Quarter
Sep 19
Full
Sep 26
Last Quarter
Oct 4
New

Hourly Weather History & Observations

Time (EDT) Temp. Heat Index Dew Point Humidity Pressure Visibility Wind Dir Wind Speed Gust Speed Precip Events Conditions
12:53 AM 78.1 °F - 71.1 °F 79% 30.16 in 9.0 mi SSW 6.9 mph - N/A   Clear
1:53 AM 77.0 °F - 71.1 °F 82% 30.16 in 9.0 mi Calm Calm - N/A   Clear
2:53 AM 75.9 °F - 71.1 °F 85% 30.15 in 8.0 mi SSE 4.6 mph - N/A   Clear
3:53 AM 73.9 °F - 70.0 °F 87% 30.14 in 7.0 mi South 4.6 mph - N/A   Clear
4:53 AM 73.9 °F - 70.0 °F 87% 30.14 in 7.0 mi South 4.6 mph - N/A   Clear
5:53 AM 73.0 °F - 70.0 °F 90% 30.15 in 6.0 mi Calm Calm - N/A   Clear
6:53 AM 73.0 °F - 70.0 °F 90% 30.17 in 4.0 mi SSE 3.5 mph - N/A   Clear
7:53 AM 73.0 °F - 70.0 °F 90% 30.17 in 4.0 mi SSE 3.5 mph - N/A   Clear
8:53 AM 78.1 °F - 71.1 °F 79% 30.18 in 6.0 mi South 4.6 mph - N/A   Haze
9:53 AM 81.0 °F 84.9 °F 71.1 °F 72% 30.18 in 7.0 mi SW 4.6 mph - N/A   Clear
10:53 AM 84.0 °F 89.0 °F 71.1 °F 65% 30.17 in 7.0 mi SW 6.9 mph - N/A   Clear
11:53 AM 87.1 °F 93.6 °F 72.0 °F 61% 30.15 in 8.0 mi West 5.8 mph - N/A   Clear
12:53 PM 89.1 °F 95.0 °F 71.1 °F 55% 30.13 in 8.0 mi SSE 4.6 mph - N/A   Clear
1:53 PM 91.0 °F 95.6 °F 69.1 °F 48% 30.09 in 9.0 mi SW 5.8 mph - N/A   Partly Cloudy
2:53 PM 91.9 °F 96.9 °F 69.1 °F 47% 30.06 in 9.0 mi South 9.2 mph - N/A   Clear
3:53 PM 91.0 °F 96.6 °F 70.0 °F 50% 30.05 in 9.0 mi SSW 8.1 mph - N/A   Partly Cloudy
4:53 PM 91.9 °F 97.4 °F 70.0 °F 48% 30.03 in 9.0 mi SW 8.1 mph - N/A   Partly Cloudy
5:53 PM 90.0 °F 96.4 °F 71.1 °F 54% 30.04 in 8.0 mi South 8.1 mph - N/A   Clear
6:31 PM 87.8 °F 92.6 °F 69.8 °F 55% 30.03 in 9.0 mi South 3.5 mph - N/A Thunderstorm Clear
6:53 PM 87.1 °F 92.0 °F 70.0 °F 57% 30.04 in 8.0 mi South 3.5 mph - N/A Thunderstorm Thunderstorm
7:53 PM 77.0 °F - 72.0 °F 84% 30.06 in 5.0 mi North 9.2 mph - 0.03 in Rain , Thunderstorm Light Thunderstorms and Rain
8:34 PM 78.8 °F - 71.6 °F 78% 30.05 in 10.0 mi NW 3.5 mph - 0.00 in   Clear
8:53 PM 77.0 °F - 71.1 °F 82% 30.07 in 9.0 mi NNE 6.9 mph - 0.00 in   Partly Cloudy
9:53 PM 75.9 °F - 70.0 °F 82% 30.05 in 10.0 mi Calm Calm - N/A   Clear
10:53 PM 73.0 °F - 71.1 °F 93% 30.05 in 5.0 mi WNW 3.5 mph - N/A   Mostly Cloudy
11:53 PM 73.9 °F - 71.1 °F 91% 30.03 in 8.0 mi Calm Calm - N/A   Mostly Cloudy